Location: Cicognara
(44.9500°N, 10.4667°E)
Time: 15:21:00
(UTC+00:00)

Cosmos 2333 Rocket - Pass Details

Date: 20 June 2021
Orbit: 841 x 861 km, 70.8° (Epoch: 03 August)

Event Time Altitude Azimuth Distance (km) Brightness Sun altitude
Rises 22:00:38 0° 238° (WSW) 3,424 5.2 -19.3°
Reaches altitude 10° 22:03:25 10° 249° (WSW) 2,489 4.6 -19.4°
Maximum altitude 22:08:21 29° 309° (NW) 1,523 4.1 -19.7°
Drops below altitude 10° 22:13:17 10° 9° (N) 2,490 5.6 -19.9°
Sets 22:16:05 0° 20° (NNE) 3,427 6.2 -20.1°
